Flag for U.S.A. Weather past 2 weeks in Wichita, Kansas, U.S.A.

Now
94 °F

Passing clouds.


Feels Like: 95 °F
Forecast: 72 / 91 °F
Wind: 17 mph from South

Location: Wichita Mid-Continent Airport

Current Time: Sep 2, 2015 at 5:47:43 PM

Latest Report: Sep 2, 2015 at 4:53 PM


Visibility: 10 mi

Pressure: 29.84 "Hg

Humidity: 36%

Dew point: 63 °F

Location of WichitaLocation

Historic Weather in Wichita — Graph

°F

Wichita temperature yesterday

Maximum temperature yesterday: 94 °F (at 2:53 PM)
Minimum temperature yesterday: 69 °F (at 4:53 AM)
Average temperature yesterday: 80 °F

Past Weeks' High & Low Weather Summary

 TemperatureHumidityPressure
High94 °F (Aug 31, 4:53 PM)97% (Aug 30, 7:53 AM)30.20 "Hg (Aug 30, 7:53 AM)
Low56 °F (Aug 20, 5:53 AM)29% (Aug 24, 2:53 PM)29.67 "Hg (Aug 18, 3:53 PM)
Average74 °F66%29.97 "Hg
* Reported Aug 18 3:53 PM — Sep 2 3:53 PM, Wichita, Weather by CustomWeather, © 2015

Note: Actual official high and low records may vary slightly from our data, if they occured in-between our weather recording intervals... More about our weather records

Advertising

Wichita weather history for previous 24 hours

 ConditionsComfort  
Time TempWeatherWind HumidityBarometerVisibility
3:53 PM
Wed, Sep 2
94 °FPassing clouds.14 mph36%29.85 "Hg10 mi
2:53 PM94 °FPassing clouds.18 mph36%29.87 "Hg10 mi
1:53 PM93 °FPassing clouds.20 mph38%29.90 "Hg10 mi
12:53 PM91 °FPassing clouds.24 mph42%29.91 "Hg10 mi
11:53 AM89 °FPassing clouds.17 mph48%29.93 "Hg10 mi
10:53 AM86 °FPassing clouds.16 mph53%29.94 "Hg10 mi
9:53 AM81 °FScattered clouds.15 mph60%29.96 "Hg10 mi
8:53 AM76 °FScattered clouds.15 mph69%29.96 "Hg10 mi
7:53 AM73 °FPassing clouds.12 mph74%29.96 "Hg10 mi
6:53 AM71 °FPartly cloudy.10 mph76%29.94 "Hg10 mi
5:53 AM72 °FPartly cloudy.10 mph73%29.94 "Hg10 mi
4:53 AM73 °FPassing clouds.13 mph71%29.93 "Hg10 mi
3:53 AM75 °FPartly cloudy.12 mph66%29.93 "Hg10 mi
2:53 AM77 °FPartly cloudy.10 mph64%29.93 "Hg10 mi
1:53 AM78 °FPassing clouds.15 mph62%29.93 "Hg10 mi
12:53 AM78 °FPartly cloudy.13 mph64%29.94 "Hg10 mi
11:53 PM
Tue, Sep 1
78 °FPassing clouds.14 mph66%29.94 "Hg10 mi
10:53 PM79 °FPassing clouds.15 mph67%29.95 "Hg10 mi
9:53 PM81 °FPassing clouds.17 mph62%29.93 "Hg10 mi
8:53 PM83 °FScattered clouds.16 mph59%29.91 "Hg10 mi
7:53 PM84 °FScattered clouds.16 mph57%29.90 "Hg10 mi
6:53 PM88 °FPassing clouds.15 mph50%29.89 "Hg10 mi
5:53 PM91 °FPassing clouds.18 mph41%29.88 "Hg10 mi
Weather by CustomWeather, © 2015

See weather overviewHow to use our weather pages